Regional Weather Roundup
Issued by NWS

Home | Current Version | Previous Version | Graphics & Text | Print | Product List | Glossary On
Versions: 1 2 3 4 5 6 7 8 9 10 11 12 13 14 15 16 17 18 19 20 21 22 23 24 25 26 27 28 29 30 31 32 33 34 35 36 37 38 39 40 41 42 43 44 45 46 47 48 49 50
000
ASUS45 KTFX 310804
RWRMT
MONTANA HOURLY WEATHER ROUNDUP
NATIONAL WEATHER SERVICE GREAT FALLS MT
104 AM MST SAT JAN 31 2015

NOTE: "FAIR" INDICATES FEW OR NO CLOUDS BELOW 12000 FEET WITH NO
SIGNIFICANT WEATHER AND/OR OBSTRUCTIONS TO VISIBILITY.

* THESE STATIONS ARE NOT UNDER NWS QUALITY CONTROL. THEY DO NOT
   REPORT WEATHER SUCH AS PRECIPITATION OR FOG.

MTZ001>007-043-310900-
WEST OF THE DIVIDE
CITY           SKY/WX    TMP DP  RH WIND       PRES   REMARKS
KALISPELL      FOG       25  23  92 CALM      30.14F VSB 1
MISSOULA       FOG       21  19  92 CALM      30.16F
BUTTE          PTCLDY    18  14  84 CALM      30.10S
MULLAN PASS    MOCLDY    25  19  78 NW8       30.07S WCI  16
* ANACONDA     MOCLDY    21  16  81 N/A        N/A
* ESSEX        N/A       18  15  88 N/A        N/A
* LINCOLN      N/A       15  12  88 NE1        N/A
* LOOKOUT PASS N/A       26  24  92 N12        N/A   WCI  15
* POLSON       N/A       22  21  96 N1         N/A
* RONAN APT    CLOUDY    23  21  92 N/A        N/A
* SEELEY LAKE  N/A       12   9  88 NE2        N/A
* THOMP F APT  CLOUDY    32  10  40 N7G23      N/A   WCI  25
* YAAK HILL    N/A       30  25  82 N/A        N/A
$$

MTZ008-052>055-310900-
SOUTHWEST MONTANA
CITY           SKY/WX    TMP DP  RH WIND       PRES   REMARKS
BOZEMAN        CLEAR     21  16  81 SW5       30.09S WCI  14
DILLON         CLEAR     21  16  81 S10       30.08R WCI  10
* W YELLOWSTON PTCLDY     5   1  83 N/A        N/A
* THREE FORKS  CLEAR     19  19 100 N/A        N/A
* BOULDER HILL N/A       27  11  51 SW6        N/A   WCI  20
* MONIDA PASS  N/A        8   7  96 SW5        N/A   WCI  -1
* RAYNOLDS PAS N/A       14   2  59 S1         N/A
* WHITEHALL    N/A       19  13  77 SW3G9      N/A
* WISE RIVER   N/A       14  10  84 W4G15      N/A
$$

MTZ009>010-012-014-046-048-049-054-310900-
EAST SLOPES AND CENTRAL MONTANA
CITY           SKY/WX    TMP DP  RH WIND       PRES   REMARKS
CUT BANK       FOG       25  23  92 N22G30    30.02S WCI  10
GREAT FALLS    CLOUDY    34  19  54 SW13      29.96F WCI  25
HELENA         PTCLDY    25  21  85 W7        30.07F WCI  17
MALMSTROM AFB  MOCLDY    32  19  59 SW10      29.97F WCI  24
* DEARBORN     N/A       34  19  54 S6G11      N/A   WCI  29
* EAST GLACIER N/A       33  17  52 W6         N/A   WCI  27
* MONARCH      N/A       30  10  43 E6G11      N/A   WCI  24
* PENDROY      N/A       40  14  35 NW14       N/A   WCI  32
* ROGERS PASS  N/A       29  17  61 S4         N/A
* SWEET GRASS  N/A       25  25 100 N17        N/A   WCI  12
$$

MTZ011-013-016-021-035-040-045-047-050-051-310900-
NORTH CENTRAL MONTANA
CITY           SKY/WX    TMP DP  RH WIND       PRES   REMARKS
HAVRE          PTCLDY    23  21  92 CALM      29.99S
LEWISTOWN      CLEAR     21  14  74 SE5       29.96F WCI  14
* N BAR RANCH  CLEAR     25  12  58 CALM      29.95F
* CHESTER      N/A       26  23  88 N1         N/A
* DENTON       N/A       25  19  78 SW5        N/A   WCI  19
* GEYSER       N/A       29  14  53 NW6        N/A   WCI  23
* JUDITH GAP   N/A       24  16  71 SW2        N/A
* LOMA         N/A       28  24  85 N/A        N/A
$$

MTZ017>020-022>027-061-062-310900-
NORTHEAST MONTANA
CITY           SKY/WX    TMP DP  RH WIND       PRES   REMARKS
GLASGOW        FOG       28  27  96 E21G26    30.07F WCI  14
GLENDIVE       CLEAR     25  21  85 NE13      30.10S WCI  13
JORDAN         CLEAR     25  21  85 E5        30.01F WCI  19
SIDNEY         CLOUDY    25  21  85 N12       30.19S VSB 3    WCI  14
WOLF POINT     FOG       27  23  85 E18       30.15F VSB 2    WCI  14
* BEAVER HILL  N/A       25  22  88 E6         N/A   WCI  18
* CIRCLE       N/A       27  24  88 N3G8       N/A
* LINDSAY DVD  N/A       24  23  96 E10        N/A   WCI  14
* NAVAJO       N/A       19  17  92 E9G15      N/A   WCI   8
* SACO         N/A       27  26  96 NE16       N/A   WCI  15
$$

MTZ028>042-056>058-310900-
SOUTHCENTRAL AND SOUTHEAST MONTANA
CITY           SKY/WX    TMP DP  RH WIND       PRES   REMARKS
BAKER          MOCLDY    23  21  92 SE8       30.07F WCI  14
BILLINGS       PTCLDY    30  25  82 SW10      29.99F WCI  21
LIVINGSTON     CLEAR     27  18  69 NW18      30.01F WCI  14
MILES CITY     PTCLDY    27  23  85 SE7       30.04F WCI  19
* LAUREL APT   PTCLDY    30  19  64 N/A        N/A
* ROUNDUP APT  CLEAR     27  18  69 S7         N/A   WCI  19
* ALZADA       N/A       26  22  85 E4         N/A
* HYSHAM       N/A       34  14  44 SW1        N/A
* LAME DEER    N/A       32  20  61 S8         N/A   WCI  25
* REED POINT   N/A       21  18  88 W1         N/A
$$

REGIONAL REPORTS...DAKOTAS
CITY           SKY/WX    TMP DP  RH WIND       PRES   REMARKS
WILLISTON      CLOUDY    23  19  85 E7        30.21R WCI  15
DICKINSON      FOG       25  23  92 E12       30.11S VSB 1/2  WCI  14
CROSBY         CLOUDY    19  19 100 E16       30.23F WCI   4
WATFORD CITY   CLOUDY    23  21  92 E9        30.17S WCI  13
BISMARCK       FOG       25  23  92 NE13      30.20S WCI  13
GRAND FORKS    CLOUDY    18  10  71 N21G28    30.25S WCI   1
FARGO          CLOUDY    21  16  81 N18       30.21R WCI   6
BUFFALO SD     MOCLDY    28  25  89 E7        30.01F WCI  21
RAPID CITY     CLOUDY    28  21  75 N8        30.07F WCI  20
$$

REGIONAL REPORTS...WYOMING/IDAHO/WASHINGTON
CITY           SKY/WX    TMP DP  RH WIND       PRES   REMARKS
GILLETTE       CLOUDY    30  21  69 CALM      30.02F
SHERIDAN       CLOUDY    25  19  78 S5        29.98F WCI  19
CODY           MOCLDY    30  18  61 SW7       29.99F WCI  23
YELLOWSTONE LA MOCLDY     0  -6  75 CALM      30.08F
SALMON         CLOUDY    27  21  78 CALM      30.23S
MULLAN PASS    MOCLDY    25  19  78 NW8       30.07S WCI  16
SAND POINT     CLOUDY    32  32 100 SW7       30.23R WCI  25
SPOKANE        LGT SNOW  28  28 100 SW3       30.23R
$$

REGIONAL REPORTS...ALBERTA
CITY           SKY/WX    TMP DP  RH WIND       PRES   REMARKS
LETHBRIDGE     LGT SNOW  25  25 100 N12G17    30.13R VSB 3    WCI  14
$$

REGIONAL REPORTS...SASKATCHEWAN
CITY           SKY/WX    TMP DP  RH WIND       PRES   REMARKS
SWIFT CURRENT  LGT SNOW  14  12  92 E20G28    30.17S VSB 1 1/4 WCI  -4

$$




USA.gov is the U.S. government's official web portal to all federal, state and local government web resources and services.